{"data":{"norad_id":65456,"intl_designator":"2025-194Y","name":"STARLINK-35005","alt_names":[],"object_type":"PAYLOAD","status":"ACTIVE","operator":null,"country":"US","launch_date":"2025-09-03","launch_site_code":"AFWTR","launch_vehicle":null,"mission":null,"orbit_class":"UNKNOWN","rcs_meters":null,"size_class":null,"mass_kg":null,"dimensions":null,"purposes":["comms"],"wikipedia_slug":null,"has_3d_model":false,"image_url":null,"decayed_at":null,"tle_current":{"epoch":"2026-05-25T03:02:23.830080Z","epoch_age_seconds":61321,"freshness":"FRESH","line1":"1 65456U 25194Y   26145.12666470  .00010451  00000+0  72739-3 0  9998","line2":"2 65456  97.4498 359.4239 0002145  96.8047 263.3424 15.05646004 41156","mean_motion":15.05646004,"eccentricity":0.0002145,"inclination_deg":97.4498,"raan_deg":359.4239,"arg_perigee_deg":96.8047,"mean_anomaly_deg":263.3424,"bstar":0.00072739,"rev_number":4115,"period_min":95.640010744518,"perigee_km":548.03742824181,"apogee_km":551.0093945583,"semimajor_km":6927.6604114001,"source":"CELESTRAK","updated_at":"2026-05-25T13:38:20.810814Z"}}}